Weather History For Prescott AZ
This page updates 5 minutes after midnight. GMT -7
Station: KPRC0 Rows: 26
| Year | Date | Temp (°F) | Tmin (°F) | Tmax (°F) | RH% | Prcp | Snow | Wind | Gust | Pres | Sun | Cloud |
|---|---|---|---|---|---|---|---|---|---|---|---|---|
| 2000 | 2000-03-13 | 50.9 | 35.1 | 66.9 | 44 | — | — | 8.7 | — | 29.96 | — | 2 |
| 2001 | 2001-03-13 | 43.0 | 28.0 | 57.9 | 60 | — | — | 9.0 | — | 29.97 | — | 1 |
| 2002 | 2002-03-13 | 55.0 | 41.0 | 66.2 | 26 | — | — | 24.5 | — | 29.70 | — | 0 |
| 2003 | 2003-03-13 | 54.3 | 37.4 | 69.8 | 41 | — | — | 10.5 | — | 30.00 | — | 0 |
| 2004 | 2004-03-13 | 54.9 | 46.4 | 66.2 | 60 | — | — | 12.9 | — | 29.93 | — | 2 |
| 2005 | 2005-03-13 | 56.1 | 48.9 | 66.0 | 47 | 0.0 | — | 20.2 | — | 29.79 | — | 0 |
| 2006 | 2006-03-13 | 31.5 | 18.0 | 42.1 | 66 | 0.0 | — | 6.0 | — | 30.15 | — | 1 |
| 2007 | 2007-03-13 | 59.4 | 41.0 | 77.0 | 23 | 0.0 | — | 10.9 | — | 29.97 | — | 0 |
| 2008 | 2008-03-13 | 55.2 | 42.1 | 69.1 | 29 | 0.0 | — | 14.7 | — | 29.85 | — | 0 |
| 2009 | 2009-03-13 | 43.2 | 28.9 | 57.9 | 66 | — | — | 7.4 | — | 29.93 | — | 3 |
| 2010 | 2010-03-13 | 44.4 | 30.0 | 59.0 | 54 | 0.0 | — | 15.3 | — | 29.83 | — | 2 |
| 2011 | 2011-03-13 | 52.5 | 34.0 | 70.0 | 37 | 0.0 | — | 6.0 | — | 30.06 | — | 0 |
| 2012 | 2012-03-13 | 49.5 | 30.9 | 66.0 | 18 | 0.0 | — | 10.7 | — | 29.95 | — | 0 |
| 2013 | 2013-03-13 | 54.0 | 35.1 | 73.0 | 41 | 0.0 | — | 5.8 | — | 30.14 | — | 0 |
| 2014 | 2014-03-13 | 51.1 | 37.9 | 61.0 | 38 | 0.0 | — | 10.8 | — | 29.88 | — | — |
| 2015 | 2015-03-13 | 54.0 | 39.9 | 69.1 | 43 | 0.0 | — | 9.1 | — | 30.07 | — | 1 |
| 2016 | 2016-03-13 | 47.5 | 30.9 | 61.0 | 44 | 0.0 | — | 14.8 | — | 29.99 | — | 0 |
| 2017 | 2017-03-13 | 59.2 | 41.0 | 77.0 | 34 | 0.0 | — | 7.6 | — | 30.04 | — | 0 |
| 2018 | 2018-03-13 | 53.1 | 39.9 | 66.9 | 61 | 0.0 | — | 8.4 | — | 29.97 | — | 1 |
| 2019 | 2019-03-13 | 38.1 | 30.0 | 44.1 | 60 | — | — | 25.9 | — | 29.75 | — | — |
| 2020 | 2020-03-13 | 40.8 | — | — | 83 | — | — | 15.5 | — | 0.00 | — | — |
| 2021 | 2021-03-13 | 32.2 | 25.0 | 39.9 | 84 | — | — | 14.2 | — | 30.06 | — | — |
| 2022 | 2022-03-13 | 45.7 | 27.0 | 60.1 | 30 | 0.0 | — | 16.1 | — | 29.98 | — | 0 |
| 2023 | 2023-03-13 | 50.0 | 37.9 | 62.1 | 46 | 0.0 | — | 14.5 | — | 29.96 | — | 0 |
| 2024 | 2024-03-13 | 46.2 | 37.0 | 53.1 | 50 | — | — | 14.0 | — | 29.79 | — | 2 |
| 2025 | 2025-03-13 | 40.6 | 32.0 | 50.0 | 79 | — | — | 22.0 | — | 29.73 | — | 7 |